Nashua, NH

5:08 PM EDT on September 28, 2016 (GMT -0400)
Boire

Weather History for KASH - June, 2013

Change the Weather History Date:

Wednesday, June 19, 2013

  Actual Average Record
Temperature  
Mean Temperature 64 °F -  
Max Temperature 74 °F 80 °F 95 °F (1994)
Min Temperature 54 °F 56 °F 37 °F (1950)
Degree Days  
Heating Degree Days 1    
Growing Degree Days 14 (Base 50)    
Moisture  
Dew Point 50 °F    
Average Humidity 69    
Maximum Humidity 94    
Minimum Humidity 25    
Precipitation  
Precipitation 0.00 in - - ()
Sea Level Pressure  
Sea Level Pressure 30.59 in    
Wind  
Wind Speed 1 mph (NNW)    
Max Wind Speed 8 mph    
Max Gust Speed 16 mph    
Visibility 10 miles    
Events      
Averages and records for this station are not official NWS values.
T = Trace of Precipitation, MM = Missing Value Source: NWS Daily Summary

Daily Weather History Graph

Daily Weather History Graph

Search for Another Location

Airport or City:

Trip Planner

Search our weather history database for the weather conditions in past years. The results will help you decide how hot, cold, wet, or windy it might be!

Date:

Astronomy

Jun. 19, 2013 Rise Set
Actual Time 5:07 AM EDT 8:27 PM EDT
Civil Twilight 4:32 AM EDT 9:02 PM EDT
Nautical Twilight 3:46 AM EDT 9:48 PM EDT
Astronomical Twilight 2:50 AM EDT 10:44 PM EDT
Moon 4:13 PM EDT (6/19) 1:55 AM EDT (6/19)
Length of Visible Light 16h 30m
Length of Day
15h 20m
Waxing Gibbous, 80% of the Moon is Illuminated
Jun 19
Waxing Gibbous
Jun 23
Full
Jun 30
Last Quarter
Jul 8
New
Jul 15
First Quarter

Hourly Weather History & Observations

Time (EDT) Temp. Dew Point Humidity Pressure Visibility Wind Dir Wind Speed Gust Speed Precip Events Conditions
12:42 AM 59.0 °F 57.2 °F 94% 29.94 in 10.0 mi Calm Calm - N/A   Overcast
12:51 AM 59.0 °F 55.9 °F 90% 30.68 in 10.0 mi Calm Calm - N/A   Overcast
1:08 AM 59.0 °F 55.4 °F 88% 29.94 in 10.0 mi Calm Calm - N/A   Mostly Cloudy
1:15 AM 59.0 °F 57.2 °F 94% 29.94 in 10.0 mi Calm Calm - N/A   Overcast
1:51 AM 57.9 °F 55.9 °F 93% 30.67 in 10.0 mi Calm Calm - N/A   Mostly Cloudy
2:33 AM 57.2 °F 55.4 °F 94% 29.94 in 10.0 mi Calm Calm - N/A   Mostly Cloudy
2:44 AM 57.2 °F 55.4 °F 94% 29.94 in 10.0 mi Calm Calm - N/A   Mostly Cloudy
2:51 AM 57.9 °F 55.9 °F 93% 30.67 in 10.0 mi Calm Calm - N/A   Mostly Cloudy
3:25 AM 57.2 °F 55.4 °F 94% 29.93 in 10.0 mi Calm Calm - N/A   Mostly Cloudy
3:51 AM 55.9 °F 54.0 °F 93% 30.67 in 9.0 mi Calm Calm - N/A   Scattered Clouds
4:51 AM 54.0 °F 52.0 °F 93% 30.69 in 10.0 mi Calm Calm - N/A   Clear
5:51 AM 54.0 °F 52.0 °F 93% 30.69 in 10.0 mi Calm Calm - N/A   Clear
6:51 AM 56.8 °F 50.9 °F 80% 30.70 in 10.0 mi NNW 3.5 mph - N/A   Clear
7:51 AM 59.9 °F 50.0 °F 70% 30.72 in 10.0 mi North 6.9 mph - N/A   Clear
8:51 AM 63.9 °F 50.9 °F 63% 30.74 in 10.0 mi North 5.8 mph - N/A   Clear
9:51 AM 65.8 °F 48.9 °F 54% 30.74 in 10.0 mi North 4.6 mph - N/A   Partly Cloudy
10:51 AM 68.0 °F 46.9 °F 47% 30.76 in 10.0 mi North 3.5 mph - N/A   Scattered Clouds
11:51 AM 68.9 °F 45.9 °F 44% 30.76 in 10.0 mi North 8.1 mph - N/A   Mostly Cloudy
12:51 PM 70.9 °F 45.9 °F 41% 30.75 in 10.0 mi NW 3.5 mph - N/A   Scattered Clouds
1:51 PM 72.0 °F 43.9 °F 36% 30.75 in 10.0 mi Calm Calm - N/A   Partly Cloudy
2:51 PM 72.0 °F 45.0 °F 38% 30.76 in 10.0 mi Calm Calm - N/A   Scattered Clouds
3:51 PM 72.9 °F 43.0 °F 34% 30.76 in 10.0 mi Variable 4.6 mph - N/A   Scattered Clouds
4:51 PM 74.8 °F 39.9 °F 28% 30.76 in 10.0 mi NNW 6.9 mph 16.1 mph N/A   Clear
5:51 PM 73.9 °F 36.0 °F 25% 30.77 in 10.0 mi North 8.1 mph - N/A   Clear
6:51 PM 72.9 °F 41.0 °F 32% 30.78 in 10.0 mi North 5.8 mph - N/A   Clear
7:51 PM 70.0 °F 48.9 °F 47% 30.80 in 10.0 mi Calm Calm - N/A   Clear
8:51 PM 61.9 °F 52.0 °F 70% 30.82 in 10.0 mi NW 3.5 mph - N/A   Clear
9:51 PM 59.0 °F 50.9 °F 74% 30.86 in 10.0 mi NW 4.6 mph - N/A   Clear
10:51 PM 55.9 °F 50.0 °F 80% 30.88 in 10.0 mi Calm Calm - N/A   Clear
11:51 PM 54.9 °F 50.0 °F 84% 30.90 in 10.0 mi Calm Calm - N/A   Clear